Tracking 29059 objects as of 19-Jun-2024
HD Live streaming from Space Station
objects crossing your sky now

ORBITER SN3

Track ORBITER SN3 now!
10-day predictions


NORAD ID: 56960
Int'l Code: 2023-084AE
Perigee: 509.7 km
Apogee: 525.7 km
Inclination: 97.5 °
Period: 94.8 minutes
Semi major axis: 6888 km
RCS: Unknown
Launch date: June 12, 2023
Source: United States (US)
Launch site: AIR FORCE WESTERN TEST RANGE (AFWTR)
Your satellite tracking list
Your tracking list is empty




NASA's NSSDC Master Catalog

Two Line Element Set (TLE):
1 56960U 23084AE  24170.85435068  .00005751  00000-0  28221-3 0  9992
2 56960  97.5457 289.1346 0011554  24.8240 335.3547 15.18438847 56341
Source of the keplerian elements: AFSPC